Regional Weather Roundup
Issued by NWS

Home | Current Version | Previous Version | Graphics & Text | Print | Product List | Glossary On
Versions: 1 2 3 4 5 6 7 8 9 10 11 12 13 14 15 16 17 18 19 20 21 22 23 24 25 26 27 28 29 30 31 32 33 34 35 36 37 38 39 40 41 42 43 44 45 46 47 48 49 50
000
ASUS43 KLOT 301812
RWRIL

ILLINOIS REGIONAL WEATHER ROUNDUP
NATIONAL WEATHER SERVICE CHICAGO/ROMEOVILLE IL
100 PM CDT SAT MAY 30 2015

NOTE: "FAIR" INDICATES FEW OR NO CLOUDS BELOW 12,000 FEET WITH NO
SIGNIFICANT WEATHER AND/OR OBSTRUCTIONS TO VISIBILITY.

* THESE STATIONS ARE NOT UNDER NWS QUALITY CONTROL. THEY ALSO MAY NOT
  REPORT WEATHER SUCH AS PRECIPITATION OR FOG.

ILZ001-002-007-009-015-016-024-301900-
NORTHWEST ILLINOIS

CITY           SKY/WX    TMP DP  RH WIND       PRES   REMARKS
MOLINE         LGT RAIN  68  64  87 NW15      29.98S
6HR MIN TEMP:  67; 6HR MAX TEMP:  71; 6HR PCP:  0.13;

STERLING*      CLOUDY    68  64  88 W3        30.00R
SAVANNA*       CLOUDY    58  55  87 NE16G23   30.04R
$$

ILZ003-004-008-010-011-017-018-301900-
NORTH CENTRAL ILLINOIS

CITY           SKY/WX    TMP DP  RH WIND       PRES   REMARKS
ROCKFORD       LGT RAIN  55  51  86 NE18G31   30.07R FOG
6HR MIN TEMP:  55; 6HR MAX TEMP:  69; 6HR PCP:  0.22;

FREEPORT*      RAIN      54  52  95 NE22      30.07R
ROCHELLE*      RAIN      67  66  95 CALM      30.01S
DE KALB*       LGT RAIN  56  54  95 NE17      30.03R
PERU*          RAIN      67  64  91 N3        30.00S
$$

ILZ005-006-012>014-019>023-301900-
NORTHEAST ILLINOIS

CITY           SKY/WX    TMP DP  RH WIND       PRES   REMARKS
CHICAGO-OHARE  CLOUDY    51  49  92 NE16      30.05R
6HR MIN TEMP:  51; 6HR MAX TEMP:  69; 6HR PCP:  0.07;

CHICAGO-MIDWAY LGT RAIN  54  52  93 N16       30.03R FOG
6HR MIN TEMP:  54; 6HR MAX TEMP:  71; 6HR PCP:  0.09;

AURORA         LGT RAIN  60  56  86 NE20      30.01R FOG
6HR MIN TEMP:  67; 6HR MAX TEMP:  70; 6HR PCP:  0.04;

LANSING*       CLOUDY    56  52  87 N15G21    30.01R
JOLIET*        RAIN      68  66  94 CALM      29.99S
WAUKEGAN       LGT RAIN  48  46  93 N16G29    30.06R
6HR MIN TEMP:  48; 6HR MAX TEMP:  67; 6HR PCP:  0.09;

DUPAGE AIRPORT LGT RAIN  56  54  93 NE14      30.02R FOG
6HR MIN TEMP:  56; 6HR MAX TEMP:  69; 6HR PCP:  0.07;

KANKAKEE*      CLOUDY    72  67  85 CALM      29.99S
WHEELING       CLOUDY    50  48  93 N15G22    30.08R
6HR MIN TEMP:  50; 6HR MAX TEMP:  68; 6HR PCP:  0.10;

MORRIS*        DRIZZLE   69  65  89 NW5       29.97F
ROMEOVILLE*    CLOUDY    66  63  89 NE20      30.00S
NORTHERLY ISL    N/A     50  48  93 N21         N/A
$$

LMZ740>746-301900-
SOUTHERN LAKE MICHIGAN

STATION/POSITION SKY/WX   TEMP    WIND        PRES    VSBY  WAVE
                          AIR SEA DIR/SP/G                  HT/PER
                          (F)     (DEG/KT/KT) (MB)    (MI)  (FT/S)
SOUTHERN BUOY              41 38  350/ 17/ 21 1017.6F         2/ 4
HARRISON CRIB              49     350/ 21/ 24   N/A
BURNHAM HARBOR             50     330/ 17/ 19   N/A
CALUMET HARBOR             54     330/ 12/ 18   N/A
BURNS HARBOR               52     350/  7/ 23 1016.9R
MICHIGAN CITY              62     220/  4/  4   N/A
MICHIGAN CITY 6N           50 57  350/ 14/ 17   N/A           1
ST. JOSEPH                 52 57  360/ 12/ 14   N/A           1
$$

ILZ025>027-034>036-040-047-049-050-058-095>099-301900-
WEST-CENTRAL ILLINOIS

CITY           SKY/WX    TMP DP  RH WIND       PRES   REMARKS
QUINCY         CLOUDY    68  65  90 NW8       29.99S
GALESBURG*     LGT RAIN  69  65  86 NW5       29.99S
MACOMB*        LGT RAIN  70  66  88 W7        30.01S
JACKSONVILLE*  LGT RAIN  71  67  88 N5        29.97F
PITTSFIELD*    CLOUDY    70  66  85 N7        30.00S
$$

ILZ028>032-037-038-041>044-048-051>054-059>061-301900-
CENTRAL ILLINOIS

CITY           SKY/WX    TMP DP  RH WIND       PRES   REMARKS
PONTIAC        RAIN      71  68  92 CALM      29.98F
BLOOMINGTON    LGT RAIN  69  68  97 NW6       29.98F FOG
DECATUR        PTSUNNY   77  67  71 SW3       29.94F
PEORIA         LGT RAIN  70  65  84 VRB3      29.98F
6HR MIN TEMP:  68; 6HR MAX TEMP:  71; 6HR PCP:  0.15;

LACON*         RAIN      66  64  93 CALM      29.98F
LINCOLN*       DRIZZLE   71  67  88 NW6       29.94F
SPRINGFIELD    LGT RAIN  71  67  87 NW8       29.96F
6HR MIN TEMP:  67; 6HR MAX TEMP:  73; 6HR PCP:  0.04;

TAYLORVILLE    PTSUNNY   73  66  78 NW3       29.95S
$$

ILZ033-039-045-046-055>057-062-063-301900-
EAST-CENTRAL ILLINOIS

CITY           SKY/WX    TMP DP  RH WIND       PRES   REMARKS
CHAMPAIGN      RAIN      74  69  85 W8        29.94F
DANVILLE*      RAIN      73  71  95 E7        29.92F
RANTOUL*       RAIN      74  70  85 CALM      29.95F
MATTOON        PTSUNNY   76  68  76 S6        29.93F
PARIS*         PTSUNNY   81  69  66 S7        29.94F THUNDER HX  84
$$

ILZ079-100>102-301900-
SOUTHWEST ILLINOIS

CITY           SKY/WX    TMP DP  RH WIND       PRES   REMARKS
BELLEVILLE     PTSUNNY   76  73  92 W12       29.90F
CAHOKIA*       CLOUDY    75  67  76 NW8       29.92F
SPARTA*        PTSUNNY   76  71  85 CALM      29.92F
$$

ILZ064>066-069>071-074>076-080>082-084>086-088>090-092>094-301900-
SOUTH-CENTRAL ILLINOIS

CITY           SKY/WX    TMP DP  RH WIND       PRES   REMARKS
CARBONDALE     LGT RAIN  77  70  79 S15G28    29.92F
6HR MIN TEMP:  72; 6HR MAX TEMP:  82; 6HR PCP:  0.02;

CAIRO*         PTSUNNY   81  67  63 S14G20    29.91F HX  83
EFFINGHAM*     CLOUDY    73  62  68 SW12G20   29.97R
MARION         PTSUNNY   82  70  65 S15       29.93F HX  86
MT. VERNON     PTSUNNY   82  68  61 S13G21    29.93F HX  85
CENTRALIA*     MOSUNNY   83  67  59 SE12      29.92F HX  86
SALEM*         PTSUNNY   77  69  76 W7        29.94F
METROPOLIS*    MOSUNNY   81  68  65 S9G18     29.93F HX  84
$$

ILZ067-068-072-073-078-083-087-091-301900-
SOUTHEAST ILLINOIS

CITY           SKY/WX    TMP DP  RH WIND       PRES   REMARKS
LAWRENCEVILLE  PTSUNNY   87  66  49 S21G26    29.94F HX  89
FLORA*         RAIN      77  70  77 SW12      29.94F
FAIRFIELD*     PTSUNNY   83  67  57 S18       29.92F HX  86
HARRISBURG*    MOSUNNY   82  68  62 S13       29.95F HX  85
ROBINSON*      PTSUNNY   84  66  54 S14G21    29.94F HX  86
CARMI*         MOSUNNY   84  61  45 S13G24    29.94F HX  84
$$

ABBREVIATIONS USED IN REMARKS
   TC - TEMPERATURE IN CELSIUS
  WCI - WIND CHILL INDEX
   HX - HEAT INDEX
  VSB - VISIBILITY
$$



USA.gov is the U.S. government's official web portal to all federal, state and local government web resources and services.